Torna al catalogo

DONGPO 12

AttivoScienzaSSO
NORAD 68200·PAYLOAD·🇨🇳 China
Questo nome del satellite non è ancora stato confermato da fonti ufficiali.

Lanciato Mar 16, 2026 da Jiuquan Satellite Launch Center

Loading…

Prossimi Passaggi (prossime 24 ore)

TLE

AggiornatoSource: Space-Track

Epoca: Sep 14, 2026, 15:09 UTC

1 68200U 26052C   26257.63175105  .00002059  00000-0  12700-3 0  9990
2 68200  97.5293 331.0241 0001237  89.0763 271.0609 15.11037588 27545

Traccia DONGPO 12 in tempo reale con AllMySat

Download on the App Store